Regional Weather Roundup
Issued by NWS

Home | Current Version | Previous Version | Text Only | Print | Product List | Glossary Off
Versions: 1 2 3 4 5 6 7 8 9 10 11 12 13 14 15 16 17 18 19 20 21 22 23 24 25 26 27 28 29 30 31 32 33 34 35 36 37 38 39 40 41 42 43 44 45 46 47 48 49 50

755
ASUS43 KDMX 131603
RWRIA

WEATHER ROUNDUP FOR IOWA
NATIONAL WEATHER SERVICE DES MOINES IA
1000 AM CST SAT FEB 13 2016

NOTE: "FAIR" INDICATES FEW OR NO CLOUDS BELOW 12,000 FEET WITH NO
SIGNIFICANT WEATHER AND/OR OBSTRUCTIONS TO VISIBILITY.

* - THESE STATIONS ARE NOT NWS STATIONS...THUS NOT UNDER NWS
QUALITY CONTROL.  THEY ALSO DO NOT REPORT WEATHER SUCH
AS PRECIPITATION OR FOG.

IAZ001>003-012>014-020>022-031>034-043>046-131700-
   NORTHWEST IOWA

CITY           SKY/WX    TMP DP  RH WIND       PRES   REMARKS
CARROLL *      CLOUDY     3  -4  72 SE7       30.59F WCI  -9
CHEROKEE *     CLOUDY     5  -2  72 SE7       30.58F WCI  -7
DENISON *      CLOUDY     5  -2  72 SE10      30.56S WCI -10
LE MARS *      CLOUDY     5  -2  72 SE14      30.56F WCI -12
ORANGE CITY *  CLOUDY     3  -2  78 SE7       30.51F WCI  -9
SHELDON *      CLOUDY     1  -4  78 SE13      30.52F WCI -16
SIOUX CITY     CLOUDY     8  -1  66 SE14      30.56F WCI  -8
SPENCER        CLOUDY     0  -8  69 SE9       30.56F WCI -15
STORM LAKE *   CLOUDY     1  -4  78 SE9       30.56S WCI -14
$$

IAZ055>058-069>071-079>083-090>094-131700-
   SOUTHWEST IOWA

CITY           SKY/WX    TMP DP  RH WIND       PRES   REMARKS
ATLANTIC *     CLOUDY     7   0  72 SE8       30.58F WCI  -6
AUDUBON *      CLOUDY     7   0  72 SE8       30.57F WCI  -6
CLARINDA *     CLOUDY    12   1  62 E8        30.61F WCI   1
COUNCIL BLFS * CLOUDY    10   5  79 SE9       30.55F WCI  -2
CRESTON *      CLOUDY     9  -2  61 E6        30.60S WCI  -1
HARLAN  *      PTSUNNY    7   1  78 SE9       30.61S WCI  -7
LAMONI         CLOUDY     8  -2  63 E6        30.60F WCI  -2
RED OAK *      CLOUDY    12   3  67 E8        30.59F WCI   1
SHENANDOAH *   CLOUDY    14   3  62 E9        30.60F WCI   2
$$

IAZ047>049-059>061-072>074-084-131700-
   CENTRAL IOWA

CITY           SKY/WX    TMP DP  RH WIND       PRES   REMARKS
AMES           CLOUDY     3  -5  69 S6        30.64F WCI  -8
ANKENY *       CLOUDY     5  -6  61 CALM      30.65F
BOONE *        CLOUDY     1  -6  71 CALM      30.61F
CHARITON *     CLOUDY     9  -4  56 E6        30.62F WCI  -1
DES MOINES     CLOUDY     8  -6  52 SE5       30.64F WCI   0
GRINNELL*      SUNNY      5  -4  66 CALM      30.64S
KNOXVILLE *    CLOUDY     7  -8  51 CALM      30.63F
MARSHALLTOWN   CLOUDY     4  -5  66 NE6       30.63F WCI  -7
NEWTON *       CLOUDY     5  -6  61 CALM      30.64F
PELLA *        CLOUDY     8  -4  58 CALM      30.66F
$$

IAZ004>006-015-016-023>025-035-036-131700-
   NORTH CENTRAL IOWA

CITY           SKY/WX    TMP DP  RH WIND       PRES   REMARKS
ALGONA *       CLOUDY     1  -6  71 VRB5      30.58F WCI  -8
CLARION *      CLOUDY     1  -9  60 SE5       30.61F WCI  -8
ESTHERVILLE    CLOUDY     0  -7  72 SE7       30.56F WCI -13
FORT DODGE *   CLOUDY     1  -8  66 E7        30.61F WCI -11
MASON CITY     CLOUDY    -1  -9  68 CALM      30.61F
FOREST CITY *    N/A      1  -8  66 SE3       30.59F
WEBSTER CITY * MOSUNNY    0  -8  71 CALM      30.60F
IOWA FALLS *     N/A      3  -6  66 CALM      30.63R
$$

IAZ007>011-017>019-026>030-037>042-050>054-066-131700-
   NORTHEAST IOWA

CITY           SKY/WX    TMP DP  RH WIND       PRES   REMARKS
CEDAR RAPIDS   SUNNY      7  -6  55 VRB3      30.63F
CHARLES CITY * CLOUDY     0 -13  55 CALM      30.63S
CLINTON *      SUNNY     10  -6  48 NW6       30.65S WCI   0
DECORAH *      CLOUDY    -2 -15  55 CALM      30.61R
DUBUQUE        SUNNY      3 -10  54 NW7       30.61S WCI  -9
MONTICELLO *   SUNNY      5  -9  51 N6        30.64F WCI  -6
OELWEIN *      CLOUDY     0 -13  55 N5        30.64R WCI -10
WATERLOO       CLOUDY     2  -9  60 NE3       30.65F
$$

IAZ064-065-067-068-078-131700-
   EAST CENTRAL IOWA

CITY           SKY/WX    TMP DP  RH WIND       PRES   REMARKS
DAVENPORT      SUNNY      9  -8  46 MISG      30.65S
IOWA CITY      SUNNY      9  -8  46 VRB5      30.67F WCI   1
MT. PLEASANT * CLOUDY    13  -3  50 NW3       30.66S
MUSCATINE *    SUNNY     10  -6  48 N5        30.68F WCI   2
QUAD CITIES    SUNNY     11  -8  42 NW5       30.66S WCI   3
$$

IAZ062-063-075>077-085>089-095>099-131700-
   SOUTHEAST IOWA

CITY           SKY/WX    TMP DP  RH WIND       PRES   REMARKS
BURLINGTON     SUNNY     11  -6  46 N3        30.65F
FAIRFIELD *    SUNNY      9  -8  47 CALM      30.66F
FORT MADISON * CLOUDY    10  -4  52 CALM      30.66S
KEOKUK *       SUNNY     10  -2  56 VRB3      30.66F
OSKALOOSA *      N/A      7  -4  61 CALM      30.65F
OTTUMWA        SUNNY      9  -3  58 CALM      30.65F
WASHINGTON *   SUNNY      9  -8  47 CALM      30.67F
$$

ABBREVIATIONS USED IN REMARKS
   TC - TEMPERATURES IN CELSIUS
  WCI - WIND CHILL INDEX
   HX - HEAT INDEX
  VSB - VISIBILITY
$$





USA.gov is the U.S. government's official web portal to all federal, state and local government web resources and services.